Weather in Severo-Vostochnye Sady

Russia / Republic of Adygea     44°37′58″N   40°08′12″E
temp.,
°C
wind,
m/s
gust,
m/s
humid.,
%
clouds,
%
prec.,
mm/h
press.,
hPa
HPBL,
m
14 may, fri
fri1400:00+15se47825 0.0 101082
03:00+14sw22570 0.0 101012
06:00+15sse22560 0.0 101016
09:00+24e34545 0.0 1010187
12:00+28e46513 0.0 1010529
15:00+29ene35580 0.0 1009863
18:00+26ne247878 0.0 1009100
21:00+21sw1186100 0.0 101011
15 may, sat
sat1500:00+17wsw478681 0.0 1011110
03:00+14w36875 0.0 101295
06:00+14wsw35840 0.0 101498
09:00+20w226644 0.0 1014335
12:00+23nnw22615 0.0 1014564
15:00+25nne33615 0.0 1013832
18:00+24ene35766 0.0 1012189
21:00+19e34905 0.0 101248
16 may, sun
sun1600:00+18e22935 0.0 101013
03:00+17s119526 0.4 101011
06:00+17wsw009699 0.7 101043
09:00+22ne228798 0.7 1009452
12:00+25ene457198 0.0 1007913
15:00+27ene5766100 0.0 10061468
18:00+25e49770 0.0 1004377
21:00+20e411880 0.0 1004210
17 may, mon
mon1700:00+18se239012 0.0 100339
03:00+18wsw229420 0.0 100328
06:00+18wsw379599 0.0 1004208
09:00+22wnw457576 0.0 1006492
12:00+25nw456948 0.0 1006806
15:00+22nnw5777100 1.9 1007513
18:00+17ese2296100 9.4 1011107
21:00+15se2394100 9.5 101142
18 may, tue
tue1800:00+15sw229088 0.0 101116
03:00+14w379798 0.3 1012254
06:00+14sse1296100 0.1 1014100
09:00+15n0195100 2.6 1014140
12:00+18nw238655 0.1 1015475
15:00+22nnw337235 0.1 10141008
18:00+20nw348411 0.8 1014266
21:00+15w11912 1.1 101513